Norfolk, VA

12:44 PM EDT on March 23, 2017 (GMT -0400)
Norfolk International

Weather History for KORF - November, 2009

Change the Weather History Date:

Thursday, November 12, 2009

  Actual Average Record
Temperature  
Mean Temperature 54 °F 54 °F  
Max Temperature 58 °F 62 °F 80 °F (2003)
Min Temperature 50 °F 46 °F 29 °F (1957)
Degree Days  
Heating Degree Days 11 11  
Month to date heating degree days 110 118  
Since 1 July heating degree days 244 275  
Cooling Degree Days 0 0  
Month to date cooling degree days 0 1  
Year to date cooling degree days 1665 1621  
Growing Degree Days 6 (Base 50)    
Moisture  
Dew Point 54 °F    
Average Humidity 97    
Maximum Humidity 100    
Minimum Humidity 93    
Precipitation  
Precipitation 4.90 in 0.10 in 4.90 in (2009)
Month to date precipitation 7.51 1.31  
Year to date precipitation 55.40 41.43  
Snow  
Snow 0.00 in 0.00 in 0.00 in (2002)
Month to date snowfall 0.0 0.0  
Since 1 July snowfall 0.0 0.0  
Snow Depth 0.00 in    
Sea Level Pressure  
Sea Level Pressure 29.66 in    
Wind  
Wind Speed 36 mph (NE)    
Max Wind Speed 58 mph    
Max Gust Speed 74 mph    
Visibility 2 miles    
Events Fog , Rain    
T = Trace of Precipitation, MM = Missing Value Source: NWS Daily Summary

Daily Weather History Graph

Daily Weather History Graph

Search for Another Location

Airport or City:

Trip Planner

Search our weather history database for the weather conditions in past years. The results will help you decide how hot, cold, wet, or windy it might be!

Date:

Astronomy

Nov. 12, 2009 Rise Set
Actual Time 6:40 AM EST 4:57 PM EST
Civil Twilight 6:12 AM EST 5:24 PM EST
Nautical Twilight 5:41 AM EST 5:55 PM EST
Astronomical Twilight 5:10 AM EST 6:26 PM EST
Moon 2:15 AM EST (11/12) 2:18 PM EST (11/12)
Length of Visible Light 11h 12m
Length of Day
10h 17m
Waning Crescent, 18% of the Moon is Illuminated
Nov 12
Waning Crescent
Nov 16
New
Nov 24
First Quarter
Dec 2
Full
Dec 8
Last Quarter

Hourly Weather History & Observations

Time (EST) Temp. Dew Point Humidity Pressure Visibility Wind Dir Wind Speed Gust Speed Precip Events Conditions
12:51 AM 55.9 °F 55.0 °F 97% 29.86 in 3.0 mi ENE 31.1 mph 48.3 mph 0.15 in Rain Heavy Rain
1:51 AM 55.9 °F 54.0 °F 93% 29.82 in 3.0 mi ENE 34.5 mph 49.5 mph 0.16 in Rain Rain
2:51 AM 55.9 °F 55.0 °F 97% 29.80 in 3.0 mi ENE 29.9 mph 41.4 mph 0.15 in Rain Rain
2:58 AM 55.4 °F 55.4 °F 100% 29.80 in 2.0 mi ENE 29.9 mph 42.6 mph 0.02 in Rain Heavy Rain
3:05 AM 55.4 °F 55.4 °F 100% 29.80 in 2.5 mi ENE 29.9 mph 44.9 mph 0.03 in Rain Heavy Rain
3:11 AM 55.4 °F 55.4 °F 100% 29.79 in 3.0 mi NE 29.9 mph 44.9 mph 0.04 in Rain Rain
3:51 AM 55.9 °F 54.0 °F 93% 29.78 in 3.0 mi NE 33.4 mph 49.5 mph 0.12 in Rain Rain
4:51 AM 55.9 °F 54.0 °F 93% 29.76 in 3.0 mi NE 31.1 mph 46.0 mph 0.10 in Rain Heavy Rain
5:51 AM 55.0 °F 54.0 °F 96% 29.76 in 3.0 mi NE 40.3 mph 55.2 mph 0.15 in Rain Heavy Rain
5:58 AM 55.4 °F 53.6 °F 94% 29.76 in 2.5 mi NE 34.5 mph 50.6 mph 0.03 in Rain Rain
6:15 AM 55.4 °F 53.6 °F 94% 29.75 in 3.0 mi NE 36.8 mph 51.8 mph 0.07 in Rain Heavy Rain
6:24 AM 55.4 °F 53.6 °F 94% 29.76 in 2.0 mi NE 40.3 mph 54.1 mph 0.11 in Rain Heavy Rain
6:51 AM 55.0 °F 54.0 °F 96% 29.75 in 2.0 mi NE 39.1 mph 50.6 mph 0.17 in Rain Heavy Rain
7:17 AM 55.4 °F 53.6 °F 94% 29.75 in 1.8 mi NE 42.6 mph 58.7 mph 0.07 in Rain Heavy Rain
7:29 AM 55.4 °F 53.6 °F 94% 29.75 in 2.0 mi NE 39.1 mph 56.4 mph 0.09 in Rain Light Rain
7:51 AM 55.0 °F 54.0 °F 96% 29.73 in 2.0 mi NE 38.0 mph 55.2 mph 0.16 in Rain Heavy Rain
7:58 AM 55.4 °F 53.6 °F 94% 29.75 in 1.8 mi NE 38.0 mph 52.9 mph 0.03 in Rain Heavy Rain
8:51 AM 55.0 °F 54.0 °F 96% 29.74 in 1.8 mi NE 40.3 mph 51.8 mph 0.26 in Rain Heavy Rain
9:41 AM 55.4 °F 53.6 °F 94% 29.72 in 0.8 mi NE 29.9 mph 50.6 mph 0.32 in Rain Heavy Rain
9:51 AM 55.0 °F 54.0 °F 96% 29.73 in 0.8 mi NNE 34.5 mph 51.8 mph 0.35 in Rain Heavy Rain
10:51 AM 55.0 °F 55.0 °F 100% 29.68 in 0.8 mi NE 34.5 mph 54.1 mph 0.34 in Rain Heavy Rain
10:58 AM 55.4 °F 55.4 °F 100% 29.69 in 0.8 mi NE 43.7 mph 56.4 mph 0.04 in Rain Heavy Rain
11:51 AM 55.0 °F 53.6 °F 95% 29.67 in 0.8 mi NE 34.5 mph 50.6 mph 0.30 in Rain Heavy Rain
12:51 PM 55.0 °F 53.6 °F 95% 29.61 in 0.8 mi NNE 29.9 mph 51.8 mph 0.29 in Rain Heavy Rain
1:51 PM 55.0 °F 53.6 °F 95% 29.58 in 1.5 mi NE 35.7 mph 55.2 mph 0.25 in Rain Light Rain
2:31 PM 55.4 °F 53.6 °F 94% 29.57 in 0.8 mi NNE 38.0 mph 50.6 mph 0.07 in   Overcast
2:51 PM 55.0 °F 53.1 °F 93% 29.56 in 0.8 mi NNE 41.4 mph 56.4 mph 0.12 in Rain Rain
3:51 PM 55.9 °F 55.0 °F 97% 29.55 in 0.2 mi NE 44.9 mph 58.7 mph 0.19 in Fog , Rain Light Rain
3:59 PM 55.4 °F 55.4 °F 100% 29.56 in 1.0 mi NNE 35.7 mph 54.1 mph 0.06 in Rain Light Rain
4:46 PM 55.4 °F 53.6 °F 94% 29.56 in 1.0 mi NE 42.6 mph 59.8 mph 0.07 in Rain Light Rain
4:51 PM 55.9 °F 54.0 °F 93% 29.55 in 1.0 mi NE 41.4 mph 56.4 mph 0.07 in Rain Light Rain
5:33 PM 55.4 °F 53.6 °F 94% 29.55 in 2.5 mi NE 43.7 mph 55.2 mph 0.04 in Rain Light Rain
5:51 PM 55.9 °F 54.0 °F 93% 29.56 in 2.5 mi NE 44.9 mph 55.2 mph 0.04 in Rain Light Rain
6:03 PM 55.4 °F 53.6 °F 94% 29.53 in 1.5 mi NE 49.5 mph 61.0 mph 0.00 in Rain Light Rain
6:28 PM 55.4 °F 53.6 °F 94% 29.53 in 1.5 mi NE 47.2 mph 67.9 mph 0.06 in Rain Rain
6:44 PM 55.4 °F 53.6 °F 94% 29.55 in 1.2 mi NE 52.9 mph 63.3 mph 0.12 in Rain Rain
6:51 PM 55.9 °F 54.0 °F 93% 29.59 in 1.2 mi NNE 40.3 mph 63.3 mph 0.14 in Rain Rain
6:59 PM 55.4 °F 53.6 °F 94% 29.58 in 2.0 mi NNE 40.3 mph 55.2 mph 0.06 in Rain Rain
7:41 PM 55.4 °F 53.6 °F 94% 29.56 in 2.0 mi NNE 44.9 mph 61.0 mph 0.20 in Rain Light Rain
7:51 PM 55.9 °F 54.0 °F 93% 29.56 in 2.5 mi NNE 44.9 mph 58.7 mph 0.23 in Rain Light Rain
8:01 PM 55.4 °F 53.6 °F 94% 29.55 in 2.5 mi NE 40.3 mph 56.4 mph 0.00 in Rain Light Rain
8:23 PM 55.4 °F 55.4 °F 100% 29.52 in 1.0 mi NE 51.8 mph 70.2 mph 0.06 in Rain Rain
8:40 PM 55.4 °F 55.4 °F 100% 29.60 in 0.8 mi NNE 34.5 mph 55.2 mph 0.21 in Rain Rain
8:51 PM 55.9 °F 55.9 °F 100% 29.65 in 1.0 mi NNE 16.1 mph 28.8 mph 0.42 in Rain Rain
9:06 PM 55.4 °F 53.6 °F 94% 29.64 in 2.0 mi NNE 20.7 mph 28.8 mph 0.08 in Rain Light Rain
9:51 PM 57.0 °F 55.9 °F 96% 29.60 in 2.0 mi NE 35.7 mph 50.6 mph 0.20 in Rain Light Rain
10:00 PM 57.2 °F 55.4 °F 94% 29.58 in 1.8 mi NE 40.3 mph 50.6 mph 0.06 in Rain Light Rain
10:51 PM 57.0 °F 55.9 °F 96% 29.55 in 2.0 mi NE 36.8 mph 50.6 mph 0.46 in Rain Light Rain
11:45 PM 57.2 °F 55.4 °F 94% 29.57 in 3.0 mi NNE 34.5 mph 44.9 mph 0.10 in Rain Light Rain
11:51 PM 57.0 °F 55.9 °F 96% 29.57 in 3.0 mi NE 31.1 mph 48.3 mph 0.10 in Rain Light Rain